Regional Weather Roundup
Issued by NWS Green Bay, WI

Home | Current Version | Previous Version | Text Only | Print | Product List | Glossary On
Versions: 1 2 3 4 5 6 7 8 9 10 11 12 13 14 15 16 17 18 19 20 21 22 23 24 25 26 27 28 29 30 31 32 33 34 35 36 37 38 39 40 41 42 43 44 45 46 47 48 49 50
000
ASUS43 KGRB 300911
RWRGRB

NORTH-CENTRAL AND NORTHEAST WISCONSIN REGIONAL WEATHER ROUNDUP
NATIONAL WEATHER SERVICE GREEN BAY WI
400 AM CDT SUN AUG 30 2015

WIZ005-009-010>012-018-019-301000-
NORTH CENTRAL WISCONSIN

CITY           SKY/WX    TMP DP  RH WIND       PRES   REMARKS
IRONWOOD       PTCLDY    63  61  94 SW5       29.97S
MANITOWISH WTR CLOUDY    60  60 100 SW6       30.04S FOG
ARBOR VITAE    CLOUDY    59  58  96 SW5       30.05R FOG
EAGLE RIVER    CLOUDY    59  59 100 SW5       30.05R FOG
LAND O LAKES   CLOUDY    61  61  99 SW5       30.05R FOG
RHINELANDER    CLOUDY    59  58  96 SW6       30.06S FOG
PHILLIPS       CLOUDY    58  58 100 S5        30.04S
ANTIGO         FOG       51  51 100 CALM      30.07R VSB 1/2
TOMAHAWK       FOG       54  53  97 CALM      30.06S VSB 1/2
MERRILL        FOG       50  50 100 CALM      30.07R VSB 1/2
$$

WIZ013-073-301000-
NORTHEAST WISCONSIN

CITY           SKY/WX    TMP DP  RH WIND       PRES   REMARKS
IRON MOUNTAIN  CLEAR     55  54  96 CALM      30.02F FOG
MARINETTE      CLOUDY    57  54  88 CALM      30.03S VSB 1/4
OCONTO         CLOUDY    52  52 100 CALM      30.04R VSB 1/4
$$

WIZ017-030-035>037-045-301000-
CENTRAL WISCONSIN

CITY           SKY/WX    TMP DP  RH WIND       PRES   REMARKS
MEDFORD        FOG       51  51 100 S3        30.05F VSB 1/4
WAUSAU         FOG       53  52  96 CALM      30.05R VSB 1/4
MOSINEE        LGT RAIN  52  52 100 CALM      30.06S VSB 1/4
MARSHFIELD     FOG       58  54  86 CALM      30.05S VSB 1/2
WISC RAPIDS    FOG       56  54  93 CALM      30.06S VSB 1/4
STEVENS POINT  FOG       52  52  99 CALM      30.06R VSB 1
WAUPACA        CLEAR     55  53  95 CALM      30.05S FOG
SHAWANO        FOG       55  54  95 CALM      30.05S VSB<1/4
CLINTONVILLE   FOG       52  52 100 CALM      30.04F VSB 1
WAUTOMA        FOG       58  58 100 CALM      30.06S VSB<1/4
$$

WIZ038-039-048-051-301000-
FOX VALLEY

CITY           SKY/WX    TMP DP  RH WIND       PRES   REMARKS
NWS GREEN BAY  FOG       59  59 100 CALM      30.05S VSB 1/4
APPLETON       CLEAR     57  57 100 CALM      30.04R FOG
OSHKOSH        FOG       58  58 100 CALM      30.05R VSB 1/2
FOND DU LAC    FOG       57  56  96 CALM      30.05R VSB 1/4
$$

WIZ022-050-052-301000-
EAST CENTRAL WISCONSIN

CITY           SKY/WX    TMP DP  RH WIND       PRES   REMARKS
EPHRAIM        FOG       57  57  99 CALM      30.03S VSB 3/4
STURGEON BAY     N/A     55  52  88 CALM      30.06S VSB 1/4
MANITOWOC      FOG       54  53  97 MISG      30.05R VSB 1/4
SHEBOYGAN      FOG       54  54 100 CALM      30.04S VSB 1/2
$$

LMZ563-521-522-541>543-301000-
LAKESHORE

STATION/POSITION TIME  TEMP    WIND        PRES    VSBY  WAVE
                       AIR SEA DIR/SP/G                  HT/PER
                 (UTC) (F)     (DEG/KT/KT) (MB)    (MI)  (FT/S)
SHEBOYGAN LKSHOR 0900   54     360/  2/  3 1017.6S
ALGOMA MARINA    0814             CALM       N/A
NORTHPORT PIER   0802   60     220/  2/  6 1016.9S
N MID LAKE BUOY  0850   63 64  220/  6/  8 1016.8F         1
S GREEN BAY BUOY 0900   61 62  240/  4/  4 1018.7R
SISTER BAY LKSHO 0819   62     270/  6/  7   N/A
CHAMBERS ISLAND  0800   60     210/  3/  5 1017.3S
$$


USA.gov is the U.S. government's official web portal to all federal, state and local government web resources and services.